Location: Neu-Ulm
(48.3873°N, 10.0192°E)
Time: 05:04:48
(UTC+01:00)

Amateur Radio Satellites - All Passes

Search period start: 18 January 2018 04:34
Search period end: 19 January 2018 04:34
Location: Neu-Ulm, 48.3873°N, 10.0192°E

Satellite Date Start Highest point End Downlink Frequencies (MHz)
Time Altitude Azimuth
AO-7 18 Jan 04:43:05 04:51:28 76° 294° (WNW) 04:59:47 .
KKS-1 18 Jan 04:51:17 04:55:42 84° 258° (WSW) 05:00:09 437.445
M-CUBED/EXP-1 PRIME 18 Jan 05:03:21 05:06:34 34° 103° (ESE) 05:09:37 437.505
STARS 18 Jan 05:17:34 05:21:54 75° 74° (ENE) 05:26:17 437.465
XW-2F 18 Jan 05:24:32 05:26:12 12° 89° (E) 05:27:51 145.980 - 146.000
KAITUO 1B 18 Jan 05:29:49 05:30:44 11° 88° (E) 05:31:38 145.475/437.950
XW-2D 18 Jan 05:30:24 05:32:51 16° 91° (E) 05:35:17 145.860 - 145.880
CUTE-I 18 Jan 05:32:39 05:36:11 18° 89° (E) 05:39:42 437.470
NUDT-PHONESAT 18 Jan 05:46:16 05:48:34 16° 91° (E) 05:50:50 437.300
XW-2B 18 Jan 05:47:22 05:50:28 24° 94° (E) 05:53:32 145.730 - 145.750
FO-29 18 Jan 05:54:46 05:59:31 21° 57° (ENE) 06:03:53 435.910
DOVE 4 18 Jan 05:56:08 06:00:10 44° 289° (WNW) 06:04:22 437.250
STRAND 1 18 Jan 05:57:46 06:02:17 33° 64° (ENE) 06:06:49 437.568
ITAMSAT 1 18 Jan 06:04:47 06:08:17 19° 304° (WNW) 06:11:47 435.822/435.867
LilacSat-2 18 Jan 06:10:14 06:13:55 46° 99° (E) 06:17:33 437.200
XW-2C 18 Jan 06:17:02 06:20:45 51° 100° (E) 06:24:25 145.795 - 145.815
SO-50 18 Jan 06:18:41 06:22:45 36° 119° (ESE) 06:26:54 436.795
HO-68 18 Jan 06:31:41 06:37:57 32° 94° (E) 06:44:09 435.675
AO-7 18 Jan 06:36:51 06:42:59 24° 316° (NW) 06:49:08 .
M-CUBED/EXP-1 PRIME 18 Jan 06:38:15 06:40:45 19° 303° (WNW) 06:43:11 437.505
CUBEBUG 2 18 Jan 06:42:22 06:46:08 23° 92° (E) 06:49:53 437.445
UWE-3 18 Jan 06:55:34 06:58:46 18° 89° (E) 07:01:57 435.000/436.395/437.385
AAUSAT CUBESAT 2 18 Jan 06:55:39 06:56:47 11° 87° (E) 06:57:56 437.432
STARS 18 Jan 06:56:46 06:58:46 13° 271° (W) 07:00:48 437.465
XW-2F 18 Jan 06:56:58 07:00:40 58° 287° (WNW) 07:04:20 145.980 - 146.000
SEEDS 18 Jan 07:01:11 07:04:49 28° 95° (E) 07:08:25 437.485
KAITUO 1B 18 Jan 07:01:27 07:05:08 67° 286° (WNW) 07:08:48 145.475/437.950
XW-2D 18 Jan 07:03:38 07:07:15 44° 289° (WNW) 07:10:49 145.860 - 145.880
RS-15 18 Jan 07:06:14 07:14:13 21° 97° (E) 07:22:06 29.354- 29.394
CUTE 1.7 + AOD 2 18 Jan 07:06:28 07:10:36 52° 99° (E) 07:14:42 437.475
CUTE-I 18 Jan 07:11:28 07:16:48 74° 288° (WNW) 07:22:06 437.470
NUDT-PHONESAT 18 Jan 07:19:06 07:22:38 44° 289° (WNW) 07:26:07 437.300
XW-2B 18 Jan 07:21:19 07:24:40 30° 292° (WNW) 07:27:58 145.730 - 145.750
ZACube-1 18 Jan 07:27:07 07:30:27 19° 90° (E) 07:33:43 437.345
AO-73 18 Jan 07:36:00 07:39:28 21° 91° (E) 07:42:52 145.935
STRAND 1 18 Jan 07:36:40 07:41:23 38° 263° (W) 07:46:10 437.568
FO-29 18 Jan 07:37:03 07:44:02 87° 255° (WSW) 07:50:12 435.910
LilacSat-2 18 Jan 07:45:21 07:47:52 17° 297° (WNW) 07:50:21 437.200
YUBILEINY 18 Jan 07:46:55 07:48:22 10° 40° (NE) 07:49:49 435.215
XW-2C 18 Jan 07:52:15 07:54:33 16° 298° (WNW) 07:56:49 145.795 - 145.815
FALCONSAT 3 18 Jan 07:54:39 07:55:43 11° 181° (S) 07:56:47 435.103
SO-50 18 Jan 07:58:59 08:03:12 38° 319° (NW) 08:07:29 436.795
Oscar 11 18 Jan 08:12:54 08:16:43 29° 95° (E) 08:20:26 .
TIGRISAT 18 Jan 08:15:11 08:18:52 26° 64° (ENE) 08:22:39 435.000
CUBEBUG 2 18 Jan 08:18:23 08:22:58 49° 290° (WNW) 08:27:32 437.445
HO-68 18 Jan 08:19:03 08:26:05 61° 294° (WNW) 08:33:05 435.675
AAUSAT CUBESAT 2 18 Jan 08:28:40 08:32:48 79° 283° (WNW) 08:36:53 437.432
UNISAT 6 18 Jan 08:29:02 08:33:07 38° 67° (ENE) 08:37:18 437.425
UWE-3 18 Jan 08:30:58 08:35:36 61° 288° (WNW) 08:40:12 435.000/436.395/437.385
XW-2A 18 Jan 08:33:06 08:36:29 72° 285° (WNW) 08:39:49 145.665 - 145.685
SEEDS 18 Jan 08:36:49 08:40:29 31° 293° (WNW) 08:44:09 437.485
CUTE 1.7 + AOD 2 18 Jan 08:43:07 08:46:05 19° 298° (WNW) 08:49:01 437.475
O/OREOS (USA 219) 18 Jan 08:53:00 08:54:17 11° 39° (NE) 08:55:33 437.305
CUTE-I 18 Jan 08:53:20 08:55:58 14° 307° (NW) 08:58:37 437.470
ZACube-1 18 Jan 09:02:32 09:07:02 54° 289° (WNW) 09:11:27 437.345
AO-73 18 Jan 09:11:32 09:15:57 50° 289° (WNW) 09:20:19 145.935
RS-15 18 Jan 09:12:17 09:24:29 71° 120° (ESE) 09:36:28 29.354- 29.394
Max Valier Satellite 18 Jan 09:25:22 09:28:14 21° 93° (E) 09:31:05 145.860
FO-29 18 Jan 09:25:34 09:29:46 17° 272° (W) 09:33:44 435.910
DELFI C3 18 Jan 09:37:31 09:41:15 42° 98° (E) 09:44:59 145.870
YUBILEINY 18 Jan 09:40:07 09:48:20 42° 68° (ENE) 09:56:25 435.215
SO-50 18 Jan 09:42:34 09:44:55 14° 342° (NNW) 09:47:16 436.795
PRISM 18 Jan 09:43:41 09:47:38 52° 70° (ENE) 09:51:35 437.425
Oscar 11 18 Jan 09:48:58 09:52:50 32° 293° (WNW) 09:56:41 .
TIGRISAT 18 Jan 09:51:16 09:55:22 39° 263° (W) 09:59:38 435.000
EO-88 18 Jan 09:52:04 09:55:12 27° 95° (E) 09:58:19 145.990 - 145.960
NANOSAT C BR1 18 Jan 09:54:21 09:55:37 11° 56° (NE) 09:56:53 145.865
QB50P2 18 Jan 10:03:11 10:05:52 17° 60° (ENE) 10:08:36 145.880/145.840
UNISAT 6 18 Jan 10:06:12 10:09:55 26° 267° (W) 10:13:44 437.425
AAUSAT CUBESAT 2 18 Jan 10:07:09 10:07:30 10° 303° (WNW) 10:07:51 437.432
HO-68 18 Jan 10:08:25 10:12:28 16° 316° (NW) 10:16:31 435.675
AIST 2D 18 Jan 10:21:50 10:25:16 55° 74° (ENE) 10:28:44 435.315
PCSat 18 Jan 10:21:58 10:26:48 34° 113° (ESE) 10:31:40 145.827
O/OREOS (USA 219) 18 Jan 10:30:18 10:34:43 57° 60° (ENE) 10:39:08 437.305
EO-79 18 Jan 10:34:11 10:37:49 28° 65° (ENE) 10:41:28 145.935-145.965
DUCHIFAT 1 18 Jan 10:37:31 10:40:55 24° 64° (ENE) 10:44:20 145.980
Max Valier Satellite 18 Jan 10:58:45 11:02:08 33° 291° (WNW) 11:05:28 145.860
POLYITAN 1 18 Jan 11:07:36 11:11:46 60° 72° (ENE) 11:15:59 437.675
BEESAT 3 18 Jan 11:09:00 11:12:59 78° 126° (SE) 11:16:59 437.485
DELFI C3 18 Jan 11:12:53 11:15:43 19° 296° (WNW) 11:18:33 145.870
PRISM 18 Jan 11:20:35 11:23:11 16° 269° (W) 11:25:48 437.425
LO-87 18 Jan 11:21:43 11:25:10 40° 98° (E) 11:28:37 145.935 - 145.965
EO-88 18 Jan 11:25:45 11:28:45 25° 293° (WNW) 11:31:46 145.990 - 145.960
RS-15 18 Jan 11:25:49 11:37:45 52° 327° (NNW) 11:49:24 29.354- 29.394
SO-50 18 Jan 11:26:02 11:27:23 11° 7° (N) 11:28:45 436.795
NANOSAT C BR1 18 Jan 11:26:23 11:30:35 83° 75° (ENE) 11:34:51 145.865
Oscar 19 18 Jan 11:30:10 11:33:48 20° 58° (ENE) 11:37:27 437.125/150
ESTCUBE 1 18 Jan 11:32:11 11:36:28 42° 98° (E) 11:40:43 437.505/2401.250
YUBILEINY 18 Jan 11:37:00 11:45:23 53° 271° (W) 11:53:41 435.215
QB50P2 18 Jan 11:37:01 11:41:12 62° 258° (WSW) 11:45:27 145.880/145.840
BEESAT 2 18 Jan 11:48:53 11:52:50 56° 123° (ESE) 11:56:49 435.950
BUGSAT 1 18 Jan 11:51:30 11:55:09 33° 67° (ENE) 11:58:52 437.445
AIST 2D 18 Jan 11:57:26 11:58:47 12° 271° (W) 12:00:07 435.315
PCSat 18 Jan 12:04:51 12:10:04 47° 313° (NW) 12:15:20 145.827
AO-7 18 Jan 12:05:35 12:10:35 18° 38° (NE) 12:15:36 .
AO-91 18 Jan 12:08:28 12:11:16 25° 67° (ENE) 12:14:10 145.960
SPROUT 18 Jan 12:08:52 12:12:30 26° 94° (E) 12:16:06 437.525
EO-79 18 Jan 12:09:42 12:13:29 32° 264° (W) 12:17:20 145.935-145.965
O/OREOS (USA 219) 18 Jan 12:10:39 12:13:42 18° 259° (W) 12:16:44 437.305
DUCHIFAT 1 18 Jan 12:12:27 12:16:22 38° 262° (W) 12:20:21 145.980
Gurwin Techsat 1B 18 Jan 12:27:49 12:32:48 42° 66° (ENE) 12:37:47 435.225
POLYITAN 1 18 Jan 12:45:23 12:47:56 15° 270° (W) 12:50:31 437.675
BEESAT 3 18 Jan 12:48:00 12:50:58 20° 326° (NNW) 12:53:57 437.485
LO-87 18 Jan 12:55:47 12:58:17 18° 296° (WNW) 13:00:47 145.935 - 145.965
AO-85 18 Jan 13:04:53 13:08:45 49° 121° (ESE) 13:12:54 145.980
NANOSAT C BR1 18 Jan 13:05:38 13:06:53 11° 273° (W) 13:08:08 145.865
SO-50 18 Jan 13:05:52 13:09:33 22° 31° (NNE) 13:13:17 436.795
Oscar 19 18 Jan 13:07:22 13:12:34 74° 257° (WSW) 13:17:48 437.125/150
ESTCUBE 1 18 Jan 13:09:24 13:13:04 25° 296° (WNW) 13:16:42 437.505/2401.250
VELOX 1 18 Jan 13:22:22 13:26:47 77° 104° (ESE) 13:31:10 145.980
BUGSAT 1 18 Jan 13:27:06 13:30:32 26° 265° (W) 13:34:01 437.445
BEESAT 2 18 Jan 13:27:30 13:30:50 24° 323° (NW) 13:34:12 435.950
YUBILEINY 18 Jan 13:38:26 13:39:57 11° 294° (WNW) 13:41:29 435.215
RS-15 18 Jan 13:42:44 13:53:40 36° 360° (N) 14:04:11 29.354- 29.394
UKube-1 18 Jan 13:44:29 13:47:27 18° 92° (E) 13:50:23 .
SPROUT 18 Jan 13:44:30 13:48:27 36° 292° (WNW) 13:52:23 437.525
AO-91 18 Jan 13:45:07 13:47:48 22° 266° (W) 13:50:31 145.960
DX 1 18 Jan 13:48:51 13:52:43 31° 96° (E) 13:56:34 434.975-435.025
PCSat 18 Jan 13:51:38 13:54:51 16° 336° (NNW) 13:58:04 145.827
AO-7 18 Jan 13:53:34 14:01:37 55° 61° (ENE) 14:09:42 .
50 SAT 18 Jan 14:06:15 14:09:12 39° 99° (E) 14:12:10 437.505
ITAMSAT 1 18 Jan 14:07:37 14:11:58 28° 62° (ENE) 14:16:20 435.822/435.867
Gurwin Techsat 1B 18 Jan 14:08:09 14:12:51 31° 265° (W) 14:17:35 435.225
M-CUBED/EXP-1 PRIME 18 Jan 14:19:19 14:21:32 14° 54° (NE) 14:23:41 437.505
BEESAT 18 Jan 14:31:12 14:31:48 10° 85° (E) 14:32:26 436.000
AO-85 18 Jan 14:45:49 14:49:24 27° 324° (NW) 14:53:13 145.980
SO-50 18 Jan 14:45:53 14:50:36 87° 226° (SW) 14:55:22 436.795
MOZHAYETS 4 18 Jan 14:47:29 14:51:22 25° 93° (E) 14:55:12
Oscar 19 18 Jan 14:51:31 14:52:47 11° 275° (W) 14:54:04 437.125/150
VELOX 1 18 Jan 15:00:13 15:02:39 15° 302° (WNW) 15:05:05 145.980
UKube-1 18 Jan 15:19:34 15:23:46 53° 289° (WNW) 15:27:57 .
ITUPSAT 1 18 Jan 15:23:59 15:28:19 32° 96° (E) 15:32:38 437.325
DX 1 18 Jan 15:25:03 15:28:52 31° 295° (WNW) 15:32:40 434.975-435.025
DOVE 4 18 Jan 15:28:01 15:31:49 31° 68° (ENE) 15:35:31 437.250
50 SAT 18 Jan 15:39:01 15:40:37 13° 297° (WNW) 15:42:13 437.505
PCSat 18 Jan 15:39:45 15:40:43 10° 3° (N) 15:41:42 145.827
ITAMSAT 1 18 Jan 15:46:15 15:51:13 47° 260° (W) 15:56:14 435.822/435.867
AO-7 18 Jan 15:46:49 15:54:36 42° 262° (W) 16:02:28 .
M-CUBED/EXP-1 PRIME 18 Jan 15:51:01 15:55:25 85° 249° (WSW) 15:59:33 437.505
RS-15 18 Jan 15:57:52 16:09:31 52° 33° (NNE) 16:20:32 29.354- 29.394
BEESAT 18 Jan 16:05:33 16:10:23 78° 104° (ESE) 16:15:11 436.000
XW-2F 18 Jan 16:09:16 16:10:45 12° 60° (ENE) 16:12:14 145.980 - 146.000
KAITUO 1B 18 Jan 16:14:02 16:14:31 10° 59° (ENE) 16:15:01 145.475/437.950
XW-2D 18 Jan 16:15:22 16:17:38 15° 62° (ENE) 16:19:54 145.860 - 145.880
CUBESAT XI-V 18 Jan 16:18:57 16:23:30 52° 100° (E) 16:27:59 437.345
MOZHAYETS 4 18 Jan 16:24:17 16:28:40 41° 292° (WNW) 16:32:59
SO-50 18 Jan 16:28:00 16:30:24 14° 250° (WSW) 16:32:49 436.795
NUDT-PHONESAT 18 Jan 16:29:04 16:31:02 14° 61° (ENE) 16:33:00 437.300
AO-85 18 Jan 16:29:53 16:31:21 11° 348° (NNW) 16:32:51 145.980
XW-2B 18 Jan 16:32:04 16:34:59 21° 65° (ENE) 16:37:55 145.730 - 145.750
KKS-1 18 Jan 16:39:44 16:42:06 14° 89° (E) 16:44:28 437.445
LilacSat-2 18 Jan 16:55:12 16:58:49 39° 70° (ENE) 17:02:28 437.200
CUTE-I 18 Jan 16:57:35 17:02:32 41° 66° (ENE) 17:07:30 437.470
XW-2C 18 Jan 17:01:19 17:04:58 42° 71° (ENE) 17:08:37 145.795 - 145.815
ITUPSAT 1 18 Jan 17:01:46 17:06:10 36° 294° (WNW) 17:10:31 437.325
HO-68 18 Jan 17:04:21 17:10:43 36° 58° (ENE) 17:17:05 435.675
DOVE 4 18 Jan 17:05:48 17:09:32 28° 265° (W) 17:13:10 437.250
STARS 18 Jan 17:06:01 17:06:31 10° 87° (E) 17:07:01 437.465
PCSat 18 Jan 17:22:40 17:26:27 19° 29° (NNE) 17:30:13 145.827
M-CUBED/EXP-1 PRIME 18 Jan 17:29:38 17:30:16 10° 266° (W) 17:30:54 437.505
XW-2F 18 Jan 17:40:30 17:44:18 75° 258° (WSW) 17:48:08 145.980 - 146.000
CUBEBUG 2 18 Jan 17:43:54 17:47:36 27° 65° (ENE) 17:51:25 437.445
KAITUO 1B 18 Jan 17:44:04 17:47:51 88° 258° (WSW) 17:51:39 145.475/437.950
BEESAT 18 Jan 17:44:33 17:47:34 17° 303° (WNW) 17:50:34 436.000
BEESAT 3 18 Jan 17:45:07 17:48:24 24° 37° (NE) 17:51:37 437.485
XW-2D 18 Jan 17:47:37 17:51:23 55° 260° (W) 17:55:10 145.860 - 145.880
AAUSAT CUBESAT 2 18 Jan 17:48:56 17:50:56 13° 59° (ENE) 17:52:55 437.432
NO-84 18 Jan 17:51:44 17:53:45 17° 134° (SE) 17:55:42 435.350 FM
UWE-3 18 Jan 17:55:55 17:59:20 22° 62° (ENE) 18:02:49 435.000/436.395/437.385
SEEDS 18 Jan 17:56:01 17:59:46 32° 67° (ENE) 18:03:31 437.485
CUBESAT XI-V 18 Jan 17:57:01 18:00:31 22° 298° (WNW) 18:04:01 437.345
NUDT-PHONESAT 18 Jan 18:00:44 18:04:25 59° 259° (W) 18:08:08 437.300
CUTE 1.7 + AOD 2 18 Jan 18:02:07 18:06:19 58° 73° (ENE) 18:10:32 437.475
XW-2B 18 Jan 18:05:23 18:08:57 36° 263° (W) 18:12:32 145.730 - 145.750
RS-15 18 Jan 18:10:59 18:22:37 68° 241° (WSW) 18:33:36 29.354- 29.394
AO-85 18 Jan 18:12:06 18:13:50 12° 14° (NNE) 18:15:37 145.980
KKS-1 18 Jan 18:14:42 18:19:08 71° 288° (WNW) 18:23:35 437.445
BEESAT 2 18 Jan 18:25:46 18:28:53 21° 34° (NE) 18:31:57 435.950
ZACube-1 18 Jan 18:26:10 18:29:43 24° 63° (ENE) 18:33:20 437.345
LilacSat-2 18 Jan 18:30:26 18:33:15 19° 268° (W) 18:36:05 437.200
AO-73 18 Jan 18:34:41 18:38:20 25° 64° (ENE) 18:42:02 145.935
XW-2C 18 Jan 18:36:41 18:39:20 18° 268° (W) 18:41:59 145.795 - 145.815
CUTE-I 18 Jan 18:37:57 18:42:41 32° 265° (W) 18:47:26 437.470
STARS 18 Jan 18:39:05 18:43:31 86° 102° (ESE) 18:47:57 437.465
HO-68 18 Jan 18:51:09 18:58:10 57° 258° (WSW) 19:05:14 435.675
PCSat 18 Jan 19:05:30 19:10:56 64° 52° (NE) 19:16:18 145.827
XW-2A 18 Jan 19:06:54 19:10:18 63° 73° (ENE) 19:13:42 145.665 - 145.685
Oscar 11 18 Jan 19:10:53 19:14:51 35° 68° (ENE) 19:18:49 .
CUBEBUG 2 18 Jan 19:20:02 19:24:04 37° 264° (W) 19:28:17 437.445
AAUSAT CUBESAT 2 18 Jan 19:21:40 19:25:48 77° 256° (WSW) 19:29:58 437.432
BEESAT 3 18 Jan 19:22:20 19:26:10 52° 237° (WSW) 19:29:55 437.485
NO-84 18 Jan 19:27:42 19:30:37 66° 330° (NNW) 19:33:27 435.350 FM
UWE-3 18 Jan 19:31:11 19:35:27 49° 261° (W) 19:39:53 435.000/436.395/437.385
SEEDS 18 Jan 19:31:47 19:35:26 28° 265° (W) 19:39:07 437.485
CUTE 1.7 + AOD 2 18 Jan 19:39:51 19:42:31 16° 270° (W) 19:45:11 437.475
STRAND 1 18 Jan 19:42:42 19:47:45 55° 100° (E) 19:52:48 437.568
AO-85 18 Jan 19:51:39 19:55:47 28° 37° (NE) 20:00:09 145.980
KKS-1 18 Jan 19:53:54 19:54:53 11° 306° (NW) 19:55:53 437.445
ZACube-1 18 Jan 20:01:28 20:05:43 44° 262° (W) 20:10:06 437.345
BEESAT 2 18 Jan 20:03:00 20:07:01 72° 235° (SW) 20:10:58 435.950
Max Valier Satellite 18 Jan 20:07:49 20:10:21 18° 64° (ENE) 20:12:54 145.860
AO-73 18 Jan 20:10:08 20:14:20 41° 263° (W) 20:18:39 145.935
STARS 18 Jan 20:17:03 20:19:13 14° 303° (WNW) 20:21:25 437.465
RS-15 18 Jan 20:25:47 20:32:31 18° 265° (W) 20:39:06 29.354- 29.394
DELFI C3 18 Jan 20:25:51 20:29:30 39° 70° (ENE) 20:33:10 145.870
FO-29 18 Jan 20:27:41 20:32:54 57° 101° (E) 20:38:00 435.910
EO-88 18 Jan 20:33:06 20:35:56 21° 66° (ENE) 20:38:47 145.990 - 145.960
HO-68 18 Jan 20:46:31 20:47:30 10° 279° (W) 20:48:29 435.675
Oscar 11 18 Jan 20:47:19 20:51:02 27° 266° (W) 20:54:46 .
PCSat 18 Jan 20:49:37 20:53:53 24° 251° (WSW) 20:58:08 145.827
nSIGHT-1 18 Jan 21:03:34 21:04:29 11° 134° (SE) 21:05:23 .
NO-84 18 Jan 21:05:48 21:08:09 22° 352° (N) 21:10:28 435.350 FM
STRAND 1 18 Jan 21:22:30 21:26:37 25° 299° (WNW) 21:30:42 437.568
AO-85 18 Jan 21:31:43 21:36:35 67° 235° (SW) 21:41:45 145.980
TIGRISAT 18 Jan 21:38:27 21:42:46 35° 96° (E) 21:47:03 435.000
Max Valier Satellite 18 Jan 21:40:17 21:43:52 43° 262° (W) 21:47:28 145.860
UNISAT 6 18 Jan 21:52:48 21:57:24 51° 99° (E) 22:01:59 437.425
LO-87 18 Jan 22:00:58 22:04:03 28° 68° (ENE) 22:07:11 145.935 - 145.965
DELFI C3 18 Jan 22:01:30 22:04:23 20° 268° (W) 22:07:17 145.870
EO-88 18 Jan 22:06:05 22:09:23 32° 263° (W) 22:12:44 145.990 - 145.960
FO-29 18 Jan 22:13:35 22:17:39 23° 301° (WNW) 22:21:38 435.910
ESTCUBE 1 18 Jan 22:34:48 22:39:16 60° 72° (ENE) 22:43:45 437.505/2401.250
nSIGHT-1 18 Jan 22:36:58 22:40:04 58° 153° (SSE) 22:43:12 .
ISS 18 Jan 22:38:58 22:42:07 45° 148° (SSE) 22:45:16 437.550
NO-84 18 Jan 22:43:29 22:45:55 25° 13° (NNE) 22:48:23 435.350 FM
YUBILEINY 18 Jan 22:46:00 22:54:00 41° 85° (E) 23:02:00 435.215
VELOX 1 18 Jan 22:48:50 22:51:17 15° 58° (ENE) 22:53:43 145.980
PRISM 18 Jan 22:56:01 22:59:58 49° 100° (E) 23:03:55 437.425
SPROUT 18 Jan 23:05:22 23:09:06 31° 67° (ENE) 23:12:53 437.525
NANOSAT C BR1 18 Jan 23:09:34 23:10:14 10° 86° (E) 23:10:53 145.865
AO-85 18 Jan 23:14:47 23:16:15 11° 253° (WSW) 23:17:44 145.980
TIGRISAT 18 Jan 23:15:13 23:19:23 32° 294° (WNW) 23:23:32 435.000
AIST 2D 18 Jan 23:15:52 23:19:09 39° 98° (E) 23:22:25 435.315
QB50P2 18 Jan 23:18:52 23:21:41 17° 90° (E) 23:24:29 145.880/145.840
UNISAT 6 18 Jan 23:30:08 23:33:47 23° 298° (WNW) 23:37:27 437.425
LO-87 18 Jan 23:34:36 23:37:27 22° 266° (W) 23:40:22 145.935 - 145.965
EO-79 18 Jan 23:50:04 23:53:53 30° 96° (E) 23:57:40 145.935-145.965
DUCHIFAT 1 18 Jan 23:52:29 23:56:02 25° 94° (E) 23:59:33 145.980
nSIGHT-1 19 Jan 00:13:13 00:16:19 48° 351° (N) 00:19:26 .
ESTCUBE 1 19 Jan 00:13:27 00:16:28 17° 270° (W) 00:19:28 437.505/2401.250
ISS 19 Jan 00:15:21 00:18:35 54° 348° (NNW) 00:21:49 437.550
NO-84 19 Jan 00:20:27 00:23:19 79° 211° (SSW) 00:26:15 435.350 FM
VELOX 1 19 Jan 00:22:46 00:27:09 77° 256° (WSW) 00:31:34 145.980
POLYITAN 1 19 Jan 00:24:02 00:28:21 67° 103° (ESE) 00:32:36 437.675
PRISM 19 Jan 00:32:04 00:34:54 19° 298° (WNW) 00:37:45 437.425
50 SAT 19 Jan 00:34:23 00:36:48 21° 67° (ENE) 00:39:15 437.505
SPROUT 19 Jan 00:41:16 00:44:59 29° 265° (W) 00:48:44 437.525
YUBILEINY 19 Jan 00:42:01 00:50:36 54° 288° (WNW) 00:59:12 435.215
UKube-1 19 Jan 00:42:04 00:45:35 25° 64° (ENE) 00:49:07 .
Gurwin Techsat 1B 19 Jan 00:42:15 00:44:04 12° 85° (E) 00:45:53 435.225
NANOSAT C BR1 19 Jan 00:42:15 00:46:34 89° 261° (W) 00:50:50 145.865
O/OREOS (USA 219) 19 Jan 00:46:36 00:50:35 31° 106° (ESE) 00:54:33 437.305
DX 1 19 Jan 00:47:32 00:51:38 43° 69° (ENE) 00:55:45 434.975-435.025
AIST 2D 19 Jan 00:49:46 00:52:02 17° 296° (WNW) 00:54:18 435.315
QB50P2 19 Jan 00:53:36 00:57:48 55° 289° (WNW) 01:02:00 145.880/145.840
BUGSAT 1 19 Jan 01:04:08 01:08:00 33° 97° (E) 01:11:51 437.445
Oscar 19 19 Jan 01:15:28 01:19:59 29° 94° (E) 01:24:27 437.125/150
EO-79 19 Jan 01:25:50 01:29:36 30° 294° (WNW) 01:33:22 145.935-145.965
DUCHIFAT 1 19 Jan 01:27:51 01:31:47 36° 292° (WNW) 01:35:41 145.980
AO-91 19 Jan 01:28:30 01:32:33 42° 99° (E) 01:37:01 145.960
BEESAT 19 Jan 01:39:20 01:42:48 20° 60° (ENE) 01:46:17 436.000
nSIGHT-1 19 Jan 01:49:40 01:52:48 52° 11° (NNE) 01:55:56 .
CUBESAT XI-V 19 Jan 01:51:36 01:53:27 12° 55° (NE) 01:55:19 437.345
ISS 19 Jan 01:52:10 01:55:23 49° 9° (N) 01:58:35 437.550
MOZHAYETS 4 19 Jan 01:52:32 01:56:47 37° 67° (ENE) 02:01:05
AO-7 19 Jan 01:54:34 01:56:43 11° 81° (E) 01:58:52 .
NO-84 19 Jan 01:59:39 02:00:01 10° 230° (SW) 02:00:23 435.350 FM
POLYITAN 1 19 Jan 02:00:59 02:03:37 16° 300° (WNW) 02:06:14 437.675
50 SAT 19 Jan 02:05:58 02:08:27 22° 264° (W) 02:10:58 437.505
UKube-1 19 Jan 02:17:25 02:21:26 38° 262° (W) 02:25:29 .
Gurwin Techsat 1B 19 Jan 02:19:33 02:24:54 77° 104° (ESE) 02:30:13 435.225
NANOSAT C BR1 19 Jan 02:19:52 02:21:36 12° 303° (WNW) 02:23:19 145.865
DX 1 19 Jan 02:24:38 02:28:00 22° 267° (W) 02:31:23 434.975-435.025
O/OREOS (USA 219) 19 Jan 02:25:48 02:29:56 34° 305° (NW) 02:34:04 437.305
ITUPSAT 1 19 Jan 02:33:59 02:38:38 57° 71° (ENE) 02:43:22 437.325
BUGSAT 1 19 Jan 02:39:37 02:43:14 28° 295° (WNW) 02:46:51 437.445
YUBILEINY 19 Jan 02:45:42 02:49:56 14° 314° (NW) 02:54:12 435.215
Oscar 19 19 Jan 02:54:32 02:59:26 43° 293° (WNW) 03:04:18 437.125/150
AO-91 19 Jan 03:05:26 03:08:52 24° 294° (WNW) 03:12:35 145.960
BEESAT 19 Jan 03:15:27 03:20:09 61° 258° (WSW) 03:24:54 436.000
CUBESAT XI-V 19 Jan 03:25:21 03:30:02 78° 75° (ENE) 03:34:45 437.345
nSIGHT-1 19 Jan 03:25:54 03:28:59 47° 210° (SSW) 03:32:04 .
ISS 19 Jan 03:28:42 03:31:57 61° 208° (SSW) 03:35:11 437.550
MOZHAYETS 4 19 Jan 03:30:00 03:34:01 28° 266° (W) 03:38:03
KKS-1 19 Jan 03:40:50 03:44:12 22° 62° (ENE) 03:47:35 437.445
AO-7 19 Jan 03:43:13 03:51:26 56° 102° (ESE) 03:59:36 .
ITAMSAT 1 19 Jan 03:54:57 03:59:56 45° 99° (E) 04:04:54 435.822/435.867
Gurwin Techsat 1B 19 Jan 04:00:35 04:04:16 19° 303° (WNW) 04:07:57 435.225
STARS 19 Jan 04:04:43 04:07:25 16° 59° (ENE) 04:10:07 437.465
ITUPSAT 1 19 Jan 04:13:21 04:16:50 20° 269° (W) 04:20:20 437.325
